GEFSSE_con_prob3kmehi_084.txt.gz
EHI
75 68 61 45 22 8 3 1 1 0 0 0 0 0 0 0 0 0 0 0 0 0 0 0 0 0 0 0 0 0 0 0 0 0 0 0 0 0 0 0 0 0 0
75 68 62 48 25 9 4 2 1 1 0 0 0 0 0 0 0 0 0 0 0 0 0 0 0 0 0 0 0 0 0 0 0 0 0 0 0 0 0 0 0 0 0
63 57 55 48 26 10 4 3 2 1 2 1 1 1 0 0 0 0 0 0 0 0 0 0 0 0 0 0 0 0 0 0 0 0 0 0 0 0 0 0 0 0 0
45 44 45 43 27 10 5 4 3 4 4 4 4 3 1 0 0 0 0 0 0 0 0 0 0 0 0 0 0 0 0 0 0 1 1 0 0 0 0 0 0 0 0
41 42 43 40 28 12 4 4 5 5 7 7 6 4 3 2 2 1 0 0 0 0 0 0 0 0 0 0 0 0 0 0 1 2 2 1 0 0 0 0 0 0 0
44 41 40 37 27 13 5 4 6 7 7 8 8 7 5 4 4 3 1 0 0 0 1 1 0 0 0 0 0 0 0 0 2 3 4 4 3 1 0 0 0 0 0
46 38 33 33 27 16 10 8 8 8 9 11 12 10 8 7 6 4 2 0 0 1 1 1 0 0 0 0 0 0 0 1 3 4 9 12 8 3 1 0 0 0 0
49 37 27 26 24 19 15 13 13 12 12 13 13 11 9 7 5 4 2 1 0 1 1 1 0 0 0 0 0 0 0 1 2 4 13 19 15 9 5 1 0 0 0
50 35 20 16 16 15 14 14 16 14 12 10 9 7 6 5 5 4 2 1 0 0 0 0 0 0 0 0 0 0 0 0 1 3 13 26 28 23 13 4 0 0 0
46 30 15 11 10 9 9 12 13 11 9 7 5 3 2 3 4 5 4 2 1 1 0 1 1 0 0 0 0 0 0 0 1 4 18 39 49 39 23 9 2 0 0
45 32 22 19 14 11 13 15 10 7 7 5 4 3 3 4 5 8 10 11 8 4 2 2 3 1 0 0 1 2 1 0 2 8 28 55 65 53 35 19 8 2 0
47 41 40 38 28 23 28 29 19 16 17 11 8 11 10 8 10 15 23 25 18 10 6 5 4 3 1 1 5 6 3 1 3 10 33 60 69 60 46 32 18 7 2
47 48 56 58 48 42 45 41 34 36 37 26 23 29 25 22 23 28 36 36 27 18 13 12 9 5 3 5 9 8 3 1 3 10 30 55 66 62 54 44 30 16 9
51 54 62 68 63 59 58 51 44 47 46 41 42 45 42 40 37 39 44 43 36 29 26 25 20 13 10 11 11 8 4 3 4 10 27 49 61 62 58 51 41 27 18
56 58 64 70 70 68 65 59 51 47 46 46 49 49 47 45 42 42 45 45 42 38 36 34 30 23 20 19 15 12 10 8 8 11 24 41 55 60 59 54 48 39 32
55 58 63 67 69 67 61 56 50 44 42 44 44 43 41 38 36 38 40 37 35 35 36 34 31 25 23 21 17 14 14 14 13 13 19 32 46 54 56 55 52 48 43
62 64 62 61 63 60 51 43 37 36 36 36 36 35 33 29 27 28 30 28 26 27 29 28 25 21 17 16 14 11 12 14 13 13 15 23 33 41 47 50 52 50 47
73 72 65 58 59 55 45 35 29 28 29 27 25 27 26 21 17 18 20 21 20 21 22 21 19 15 12 11 10 7 8 10 10 9 11 15 21 27 34 39 44 47 45
72 70 64 59 57 51 43 35 28 24 22 20 19 21 21 16 12 12 15 16 14 14 16 17 17 14 10 7 6 5 5 7 7 5 5 8 13 18 22 26 33 37 37
58 57 56 56 51 43 38 35 28 22 18 16 17 19 18 12 9 8 9 10 8 8 10 14 16 14 9 4 2 1 2 3 3 2 1 3 7 12 16 21 28 30 28
44 45 48 48 42 36 33 30 25 20 16 13 15 17 13 8 6 5 5 5 5 5 6 9 10 8 5 3 0 0 0 0 1 2 2 2 3 7 12 19 27 31 30
35 38 41 42 38 30 24 20 18 15 12 11 15 16 12 8 6 5 5 4 3 3 4 5 5 4 2 1 0 0 0 0 1 3 4 3 2 4 8 12 20 26 30
27 31 38 42 35 24 15 11 10 11 10 11 17 20 17 12 9 6 5 4 3 3 3 3 3 2 1 0 0 0 1 1 1 2 2 2 1 3 4 4 8 14 17
19 27 41 46 37 24 15 11 9 9 9 11 19 23 19 14 9 6 4 4 4 3 3 2 1 1 1 0 0 0 1 2 1 0 0 0 0 1 1 1 2 6 8
15 24 40 47 42 32 23 17 14 10 8 9 14 16 13 9 7 4 3 3 4 3 2 1 0 0 1 1 0 0 1 1 1 0 0 0 0 0 0 1 1 2 4
14 21 35 46 44 36 28 22 17 12 9 8 9 9 7 4 3 2 2 3 4 3 2 1 0 0 1 1 1 0 0 1 0 0 0 0 0 0 1 2 2 1 2

GEFSSE_con_prob3kmehi_090.txt.gz
EHI
7 10 22 36 36 24 15 9 6 4 1 1 3 2 1 0 0 0 0 0 0 0 0 0 0 0 0 0 0 0 0 0 0 0 0 0 0 0 0 0 0 0 0
21 22 31 43 41 29 18 11 6 3 1 0 1 1 0 0 0 0 0 0 0 0 0 0 0 0 0 0 0 0 0 0 0 0 0 0 0 0 0 0 0 0 0
45 38 40 50 48 36 23 14 7 3 1 0 0 0 0 0 0 0 0 0 0 0 0 0 0 0 0 0 0 0 0 0 0 0 0 0 0 0 0 0 0 0 0
58 47 44 54 54 42 30 17 9 5 3 1 0 0 0 0 0 0 0 0 0 0 0 0 0 0 0 0 0 0 0 0 0 0 0 0 0 0 0 0 0 0 0
60 52 51 60 60 49 37 24 12 5 3 2 0 0 0 0 0 0 0 0 0 0 0 0 0 0 0 0 0 0 0 0 0 0 0 0 0 1 1 0 0 0 0
60 56 58 65 63 52 42 30 17 8 5 3 1 1 1 0 0 0 0 0 0 0 0 0 0 0 0 0 0 0 0 0 0 0 0 0 1 2 2 1 0 0 0
58 56 57 65 65 54 44 33 21 12 7 5 3 3 3 1 1 0 0 0 0 0 0 0 0 0 0 0 0 0 0 0 0 0 0 0 2 5 4 1 0 0 0
54 51 51 56 58 53 45 34 23 15 9 7 5 5 4 3 1 0 0 0 0 1 0 0 0 0 0 0 0 0 0 0 0 0 0 0 4 9 9 4 1 0 0
48 45 42 41 41 40 36 30 24 18 13 9 7 5 4 2 1 0 0 0 0 0 0 0 0 0 0 0 0 0 0 0 0 0 0 1 7 15 16 10 5 2 0
37 36 32 27 23 22 20 19 19 17 13 8 6 5 2 1 0 0 1 1 1 0 0 0 0 0 0 0 0 0 1 0 0 0 0 1 9 19 19 14 11 6 2
24 24 21 17 13 11 9 9 11 10 8 5 4 3 2 0 0 0 1 2 1 1 1 2 2 1 1 0 0 0 0 0 0 0 0 3 10 18 20 17 15 11 7
13 13 12 11 10 8 6 4 4 4 3 1 1 1 1 0 0 0 1 2 1 1 2 3 2 2 1 0 0 0 0 0 0 0 1 5 12 18 19 17 17 17 14
15 12 10 10 8 6 4 2 1 1 0 0 0 0 0 0 0 0 0 0 0 0 1 2 2 2 2 1 0 0 0 0 0 0 2 9 16 18 15 14 17 19 18
25 21 15 14 12 9 6 4 2 1 1 1 2 1 0 0 0 0 0 0 0 0 0 1 2 2 2 1 0 0 1 1 1 0 3 11 17 16 12 12 14 16 17
35 31 28 28 27 21 13 9 5 4 3 3 4 4 2 1 1 2 1 0 0 0 0 1 1 2 1 0 0 0 1 2 2 1 3 9 13 12 11 11 10 12 15
43 41 41 42 40 31 20 13 9 6 4 5 7 8 5 3 2 2 1 0 0 0 0 0 0 0 0 0 0 0 0 1 2 2 3 6 8 7 8 9 9 10 12
48 45 43 41 36 29 21 15 10 7 5 6 8 9 6 3 2 1 1 0 0 0 0 0 0 0 0 0 0 0 0 0 1 1 2 3 4 4 4 6 8 9 8
43 40 35 30 24 20 18 14 10 8 6 5 5 5 3 1 1 1 0 0 0 0 0 0 0 0 0 0 0 0 0 0 0 0 1 1 2 1 1 3 7 8 6
34 31 27 21 16 13 13 11 8 6 4 3 2 1 0 0 0 0 0 0 0 0 0 0 0 0 0 0 0 0 0 0 0 0 0 0 0 0 0 1 3 5 4
26 25 21 16 12 9 8 7 4 2 1 1 1 0 0 0 0 0 0 0 0 0 0 0 0 0 0 0 0 0 0 0 0 0 0 0 0 0 0 0 1 2 2
21 20 17 13 7 4 3 2 1 0 0 0 0 0 0 0 0 0 0 0 0 0 0 0 0 0 0 0 0 0 0 0 0 0 0 0 0 0 0 0 0 0 1
16 14 10 6 3 1 0 0 0 0 0 0 0 0 0 0 0 0 0 0 0 0 0 0 0 0 0 0 0 0 0 0 0 0 0 0 0 0 0 0 0 0 0
9 7 3 1 0 0 0 0 0 0 0 0 0 0 0 0 0 0 0 0 0 0 0 0 0 0 0 0 0 0 0 0 0 0 0 0 0 0 0 0 0 0 0
4 3 1 1 1 1 0 1 1 0 0 0 0 0 0 0 0 0 0 0 0 0 0 0 0 0 0 0 0 0 0 0 0 0 0 0 0 0 0 0 0 0 0
2 2 2 2 2 2 2 2 2 1 0 0 0 0 0 0 0 0 0 0 0 0 0 0 0 0 0 0 0 0 0 0 0 0 0 0 0 0 0 0 0 0 0
2 2 2 3 3 3 3 3 2 1 0 0 0 0 0 0 0 0 0 0 0 0 0 0 0 0 0 0 0 0 0 0 0 0 0 0 0 0 0 0 0 0 0

GEFSSE_con_prob3kmehi_096.txt.gz
EHI
5 9 14 21 31 43 52 55 54 49 42 35 27 18 9 6 6 4 2 1 0 0 0 0 0 0 0 0 0 0 0 0 0 0 0 0 0 0 0 0 0 0 0
11 11 16 25 35 44 49 50 48 43 36 29 23 15 9 5 4 3 1 0 0 0 0 0 0 0 0 0 0 0 0 0 0 0 0 0 0 0 0 0 0 0 0
21 16 17 28 39 45 47 46 41 34 28 23 18 12 7 4 3 1 0 0 0 0 0 0 0 0 0 0 0 0 0 0 0 0 0 0 0 0 0 0 0 0 0
28 20 18 29 40 47 47 44 36 28 22 19 14 10 5 3 2 1 0 0 0 0 0 0 0 0 0 0 0 0 0 0 0 0 0 0 0 0 0 0 0 0 0
31 23 21 31 42 46 45 39 32 24 18 14 9 7 4 2 1 1 0 0 0 0 0 0 0 0 0 0 0 0 0 0 0 0 0 0 0 0 0 0 0 0 0
32 25 25 35 42 42 38 33 28 22 15 9 6 5 4 3 2 2 1 0 0 0 0 0 0 0 0 0 0 0 0 0 0 0 0 0 0 0 0 0 0 0 0
37 29 28 37 40 37 33 29 25 19 13 8 4 4 5 4 3 3 1 0 0 0 0 0 0 0 0 0 0 0 0 0 0 0 0 0 0 0 0 0 0 0 0
44 34 29 33 35 34 32 28 22 16 11 7 4 4 5 5 4 3 2 1 0 0 0 0 0 0 0 0 0 0 0 0 0 0 0 0 1 1 0 0 0 0 0
43 37 29 27 27 28 27 26 21 14 9 7 4 3 4 4 3 2 2 1 0 0 0 0 0 0 0 0 0 0 0 0 0 0 0 1 2 2 1 1 0 0 0
37 33 28 23 21 20 19 19 18 13 10 7 4 3 3 2 1 1 1 0 0 0 0 0 0 0 0 0 0 0 0 0 0 0 0 1 3 3 3 2 1 0 0
25 24 24 22 19 16 14 12 12 12 9 6 3 3 3 1 0 0 0 0 0 0 0 1 1 1 0 0 0 0 0 0 0 0 0 1 2 3 4 3 2 1 0
16 16 18 18 17 16 14 11 10 9 6 4 2 1 1 0 0 0 0 0 0 0 0 1 2 2 1 0 0 1 0 0 0 0 0 1 2 3 5 5 4 2 1
15 14 14 14 14 14 13 12 10 8 5 3 1 0 0 0 0 0 0 0 0 0 0 1 1 1 1 0 0 0 0 0 0 0 0 1 2 3 4 6 7 6 4
17 16 14 13 12 11 10 10 9 7 5 2 1 0 0 0 0 0 0 0 0 0 0 0 0 0 0 0 0 0 0 0 0 0 0 1 2 3 4 6 9 9 6
16 16 15 12 10 9 8 8 6 4 2 1 0 0 0 0 0 0 0 0 0 0 0 0 0 0 0 0 0 0 0 0 1 1 0 1 3 5 5 5 7 9 8
13 13 12 10 8 7 6 4 3 2 0 0 0 0 0 0 0 0 0 0 0 0 0 0 0 0 0 0 0 0 0 0 1 1 1 3 5 5 4 4 5 6 6
12 12 10 7 5 4 3 3 2 2 0 0 0 0 0 0 0 0 0 0 0 0 0 0 0 0 0 0 0 0 0 0 1 1 1 3 4 3 2 3 4 3 2
12 12 10 8 5 3 2 2 2 1 0 0 0 0 0 0 0 0 0 0 0 0 0 0 0 0 0 0 0 0 0 0 0 0 0 1 1 1 1 2 3 2 1
12 11 10 9 6 3 1 1 1 0 0 0 0 0 0 0 0 0 0 0 0 0 0 0 0 0 0 0 0 0 0 0 0 0 0 0 0 0 0 1 2 2 1
9 9 8 7 5 2 0 0 0 0 0 0 0 0 0 0 0 0 0 0 0 0 0 0 0 0 0 0 0 0 0 0 0 0 0 0 0 0 0 0 1 1 0
6 7 6 4 2 1 0 0 0 0 0 0 0 0 0 0 0 0 0 0 0 0 0 0 0 0 0 0 0 0 0 0 0 0 0 0 0 0 0 0 0 0 0
5 5 4 3 2 1 0 0 0 0 0 0 0 0 0 0 0 0 0 0 0 0 0 0 0 0 0 0 0 0 0 0 0 0 0 0 0 0 0 0 0 0 0
4 4 2 2 1 1 0 1 1 0 0 0 0 0 0 0 0 0 0 0 0 0 0 0 0 0 0 0 0 0 0 0 0 0 0 0 0 0 0 0 0 0 0
3 3 2 1 0 0 0 1 1 0 0 0 0 0 0 0 0 0 0 0 0 0 0 0 0 0 0 0 0 0 0 0 0 0 0 0 0 0 0 0 0 0 0
3 3 2 1 0 0 0 0 0 0 0 0 0 0 0 0 0 0 0 0 0 0 0 0 0 0 0 0 0 0 0 0 0 0 0 0 0 0 0 0 0 0 0
3 3 2 1 0 0 0 0 0 0 0 0 0 0 0 0 0 0 0 0 0 0 0 0 0 0 0 0 0 0 0 0 0 0 0 0 0 0 0 0 0 0 0

GEFSSE_con_prob3kmehi_102.txt.gz
EHI
5 6 7 6 6 10 15 20 24 26 21 14 10 8 7 5 4 3 3 3 3 3 3 3 3 3 3 3 3 3 3 4 4 4 3 3 3 2 2 1 2 2 3
7 7 7 7 8 12 17 22 26 27 22 14 11 10 9 6 4 3 3 3 3 3 3 3 3 3 3 3 3 3 3 4 4 4 3 3 2 1 1 1 3 3 3
11 9 7 8 10 12 17 22 27 27 21 14 11 10 10 8 5 3 3 3 3 3 3 3 3 3 3 3 3 3 3 3 4 3 3 2 1 0 1 2 3 4 3
11 10 8 8 8 10 14 20 24 23 18 13 10 10 10 8 5 3 3 3 3 3 3 3 3 3 3 3 3 3 3 3 3 3 1 1 0 1 2 3 3 3 3
10 10 10 9 8 7 12 18 20 18 16 13 11 10 9 7 4 3 3 3 3 3 3 3 3 3 3 3 3 3 3 3 3 2 1 0 1 2 3 3 3 3 3
9 9 11 11 9 8 11 16 17 15 13 12 11 9 7 5 4 3 3 3 3 3 3 3 3 3 3 3 3 3 3 3 3 2 2 1 1 3 3 3 3 3 3
8 9 12 12 10 9 11 12 13 12 11 10 9 8 6 4 3 3 3 3 3 3 3 3 3 3 3 3 3 3 3 3 3 3 3 3 3 3 3 3 3 3 3
8 10 12 11 8 7 8 9 9 9 8 7 6 7 7 4 3 3 3 3 3 3 3 3 3 3 3 3 3 3 3 3 3 3 3 3 3 3 3 3 3 3 3
7 9 11 9 5 5 6 7 7 7 6 6 5 6 7 5 3 3 3 3 4 4 3 3 3 3 3 3 3 3 3 3 3 3 3 3 3 3 3 3 3 3 3
6 7 7 5 4 3 4 5 4 5 7 7 5 4 5 4 3 3 3 4 4 4 4 3 3 3 3 3 3 3 3 3 3 3 3 3 3 3 3 3 3 3 3
7 5 4 3 3 3 3 4 3 5 7 7 4 3 4 3 3 3 3 3 4 4 3 3 4 3 3 3 3 3 3 3 3 3 3 3 3 3 3 3 3 3 3
11 6 3 3 3 3 3 4 4 5 6 5 4 4 4 3 3 4 4 3 3 3 4 4 4 3 3 3 3 2 3 3 3 3 3 3 3 3 3 3 3 3 3
14 9 4 3 3 4 4 5 5 6 6 5 5 6 5 4 5 6 6 4 3 3 4 4 4 4 4 4 3 3 3 3 3 3 3 3 3 3 3 3 3 3 3
14 11 7 6 6 7 6 6 7 7 7 7 7 6 5 5 6 7 7 4 2 3 4 4 4 5 5 5 3 3 2 2 2 3 3 3 3 3 3 3 3 3 3
14 12 11 12 12 12 11 10 8 8 7 7 8 6 4 5 6 8 8 6 5 4 4 3 3 4 5 4 2 1 1 1 1 1 2 3 3 4 4 3 3 3 3
15 14 14 17 18 17 15 13 10 8 8 7 8 7 6 5 7 8 8 8 7 7 5 3 1 2 2 1 1 0 0 1 1 1 1 2 3 5 5 4 3 4 4
17 17 18 19 19 18 16 12 9 8 8 7 7 8 8 6 7 8 8 7 6 6 4 2 0 1 1 0 0 0 0 1 2 1 0 1 3 4 5 4 4 5 4
19 20 20 19 18 17 14 11 9 9 9 9 8 8 8 6 5 6 7 5 3 2 1 0 0 0 0 0 0 1 1 2 3 2 1 2 3 3 3 4 6 6 4
20 20 20 19 17 17 15 11 10 10 10 10 9 8 6 5 4 4 4 4 2 0 0 0 0 0 0 0 1 2 2 2 3 3 2 2 2 2 2 3 5 6 4
20 20 20 19 18 17 15 13 13 12 9 9 8 7 6 4 3 2 2 2 1 0 0 0 0 0 0 0 0 1 1 1 2 2 2 1 1 1 1 2 3 4 4
18 20 20 18 17 17 15 15 17 15 10 9 8 7 6 5 3 2 1 1 1 0 0 0 0 0 0 0 0 0 0 0 0 0 0 0 0 0 0 0 1 2 3
17 18 18 16 15 16 16 17 17 15 12 10 9 8 7 6 4 2 1 1 0 0 0 0 0 0 0 0 0 0 0 0 0 0 0 0 0 0 0 0 0 1 2
16 16 15 14 16 16 16 14 13 11 10 10 9 8 7 6 4 2 1 1 0 0 0 0 0 0 0 0 0 0 0 0 0 0 0 0 0 0 0 0 0 0 1
12 12 14 16 17 16 14 12 9 6 6 7 8 7 7 6 4 2 2 1 0 0 0 0 0 0 0 0 0 0 0 0 0 0 0 0 0 0 0 0 0 0 0
7 9 13 17 19 17 14 12 7 4 4 6 6 6 5 4 3 1 1 0 0 0 0 0 0 0 0 0 0 0 0 0 0 0 0 0 0 0 0 0 0 0 0
5 7 11 16 20 19 15 12 7 4 4 5 5 4 3 2 1 0 0 0 0 0 0 0 0 0 0 0 0 0 0 0 0 0 0 0 0 0 0 0 0 0 0

GEFSSE_con_prob3kmehi_108.txt.gz
EHI
35 37 35 21 6 2 0 0 0 0 0 0 0 0 0 0 0 0 0 0 0 0 0 0 0 0 0 0 0 0 0 0 1 2 2 2 2 2 1 0 0 0 0
43 41 38 24 9 3 1 0 0 0 0 0 0 0 0 0 0 0 0 0 0 0 0 0 0 0 0 0 0 0 0 0 0 1 1 1 1 1 1 1 1 0 0
46 41 34 25 13 6 2 0 1 1 0 0 0 0 0 0 0 0 0 0 0 0 0 0 0 0 0 0 0 0 0 0 0 0 0 0 0 0 1 1 1 0 0
42 36 32 27 18 9 3 2 4 3 1 1 0 0 0 0 0 0 0 0 0 0 0 0 0 0 0 0 0 0 1 2 2 1 0 0 0 0 0 1 1 0 0
42 40 40 35 25 13 6 5 5 4 3 2 1 0 0 0 0 0 0 0 0 0 0 0 0 0 0 0 0 0 2 5 5 2 0 0 0 0 0 0 0 0 0
49 47 45 40 30 18 9 5 4 3 2 2 1 0 0 0 0 0 0 0 0 0 0 0 0 0 0 0 0 0 3 9 10 6 2 1 0 0 0 0 0 0 0
55 49 42 39 33 22 12 5 2 1 1 1 0 0 0 0 0 0 0 0 0 0 0 0 0 0 0 0 0 0 3 10 11 8 6 3 0 1 1 1 0 0 0
57 50 41 36 31 22 14 8 4 1 0 0 0 0 0 0 0 0 0 0 0 0 0 0 0 0 0 0 0 0 3 7 7 5 5 3 1 2 2 1 0 0 0
55 48 37 31 25 18 12 9 5 2 0 0 0 0 0 0 0 0 0 0 1 1 1 0 0 0 0 0 0 0 3 5 4 2 2 2 2 2 2 1 0 0 0
51 42 31 24 18 12 8 6 4 2 0 0 0 0 0 0 0 0 1 2 2 2 1 0 0 0 0 0 0 0 2 4 3 1 1 3 3 2 1 0 0 0 0
47 37 26 21 15 8 4 3 3 2 1 1 0 1 1 1 2 3 4 5 3 1 1 0 0 0 0 0 1 2 2 1 2 2 4 5 5 2 0 0 0 0 0
46 35 26 23 17 9 6 5 2 2 3 2 1 2 3 4 5 7 7 5 2 0 0 0 0 0 0 1 2 3 1 0 1 3 7 9 7 3 0 0 0 0 0
47 37 32 34 29 22 18 11 5 4 4 5 5 6 7 8 11 13 11 6 4 2 1 2 1 1 1 2 3 3 1 0 1 4 10 11 7 2 1 1 1 1 1
52 46 46 51 51 46 36 23 13 10 8 10 14 13 11 12 17 20 17 11 8 5 4 3 3 3 3 4 4 3 1 1 3 6 10 12 8 3 2 2 2 3 3
58 57 60 65 68 64 50 33 22 18 17 19 21 19 17 18 20 22 18 12 9 9 7 3 2 3 4 4 3 2 2 2 5 7 9 10 8 4 4 4 4 4 4
61 63 66 68 69 64 50 35 27 25 25 27 27 26 23 20 20 17 12 8 8 9 8 3 1 2 2 2 1 1 1 2 5 7 8 8 9 7 6 7 7 7 6
62 63 63 63 62 57 44 34 29 27 28 31 32 30 25 20 17 14 9 6 6 7 6 3 2 2 2 1 0 0 1 3 5 6 6 6 7 7 7 7 9 10 11
60 59 56 56 57 53 43 36 34 32 33 35 34 29 23 17 13 12 11 8 5 4 3 2 2 2 2 1 0 0 1 3 3 2 3 4 5 6 5 6 8 10 11
57 57 55 55 56 51 42 39 40 41 40 39 35 28 19 13 10 11 12 8 5 5 4 2 1 1 1 1 0 0 1 2 2 1 1 2 3 4 4 4 5 6 6
54 56 56 56 56 50 42 40 41 41 37 35 31 24 16 10 8 9 9 6 5 6 4 1 0 0 0 0 0 0 0 2 3 3 1 1 2 3 3 4 5 4 4
51 54 55 54 52 46 40 38 37 33 29 26 22 17 13 10 8 7 6 4 4 4 2 1 0 0 0 0 0 0 0 2 3 3 1 1 1 1 2 4 5 4 3
45 48 50 48 45 40 36 33 30 27 23 20 19 16 12 9 7 5 4 4 3 2 1 0 0 0 0 0 0 0 0 1 1 1 1 0 0 0 1 2 3 3 2
39 43 45 44 41 37 34 28 24 21 19 20 22 18 12 9 5 4 4 4 3 2 1 0 0 0 0 0 0 0 0 0 0 0 0 0 0 0 0 0 0 1 1
36 40 46 46 40 35 31 25 21 17 16 20 23 20 14 8 5 4 4 4 3 2 0 0 0 0 0 0 0 0 0 0 0 0 0 0 0 0 0 0 0 0 0
34 37 43 46 40 32 26 22 18 16 18 23 26 23 14 7 5 5 5 4 3 1 1 1 1 1 0 0 0 0 0 0 0 0 0 0 0 0 0 0 0 0 0
33 34 38 42 40 32 25 21 17 17 22 28 30 24 13 7 5 7 6 4 2 1 2 3 3 2 1 0 0 0 0 0 0 0 0 0 0 0 0 0 0 0 0

GEFSSE_con_prob3kmehi_114.txt.gz
EHI
3 9 19 24 21 14 7 2 2 1 0 0 0 0 0 0 0 0 0 0 0 0 0 0 0 0 0 0 0 0 0 1 1 1 0 0 0 0 0 0 0 0 0
8 12 23 28 25 18 10 4 2 1 0 0 0 0 0 0 0 0 0 0 0 0 0 0 0 0 0 0 0 0 0 0 0 0 0 0 0 0 0 0 0 0 0
18 18 26 35 32 22 13 6 2 0 0 0 0 0 0 0 0 0 0 0 0 0 0 0 0 0 0 0 0 0 0 0 0 0 0 0 0 0 0 0 0 0 0
29 24 31 41 38 24 13 6 2 0 0 0 0 0 0 0 0 0 0 0 0 0 0 0 0 0 0 0 0 0 0 0 0 0 0 0 0 0 0 0 0 0 0
36 32 38 48 41 25 13 7 3 1 0 0 0 0 0 0 0 0 0 0 0 0 0 0 0 0 0 0 0 0 0 0 0 0 0 0 0 0 0 0 0 0 0
44 40 45 51 42 26 15 9 5 2 0 0 0 0 0 0 0 0 0 0 0 0 0 0 0 0 0 0 0 0 1 1 1 0 0 0 0 0 0 0 0 0 0
56 50 49 50 42 29 19 12 7 3 1 1 0 0 0 0 0 0 0 0 0 0 0 0 0 0 0 0 0 0 1 2 1 0 0 0 0 0 0 0 0 0 0
66 59 51 46 41 31 23 15 9 4 3 2 1 0 0 0 0 0 0 0 0 0 0 0 0 0 0 0 0 1 1 1 1 0 0 0 1 2 1 0 0 0 0
69 62 50 41 35 29 24 17 10 5 4 2 1 0 0 0 0 0 0 0 0 0 0 0 0 0 0 0 0 1 1 0 0 0 0 0 1 3 3 1 0 0 0
66 59 47 38 32 26 21 15 9 5 3 2 1 0 0 0 0 0 0 0 0 0 0 0 0 0 0 0 0 0 0 0 0 0 0 0 1 3 3 2 1 0 0
59 52 43 37 32 25 18 12 7 4 3 2 1 0 0 0 0 0 0 0 0 0 0 0 0 0 0 0 1 0 0 0 0 0 0 0 1 2 2 2 2 1 0
51 43 35 30 27 22 17 12 8 5 3 1 1 0 0 0 0 0 0 0 0 0 0 0 0 0 0 0 0 0 0 0 0 0 1 1 1 1 1 1 2 2 1
38 32 26 24 21 18 16 14 9 4 1 0 0 0 0 0 0 0 0 0 0 0 0 0 0 0 0 0 0 0 0 0 0 0 1 2 2 2 1 1 1 1 1
25 22 20 20 18 15 14 13 7 2 0 0 0 0 0 0 0 0 0 0 0 0 0 0 0 0 0 0 0 0 0 0 0 0 0 1 2 2 1 0 0 0 1
21 20 19 19 17 13 12 11 5 1 0 0 0 0 0 0 0 0 0 0 0 0 0 0 0 0 0 0 0 0 0 0 0 0 0 1 2 2 1 0 0 0 0
25 25 24 23 19 15 13 10 5 2 2 1 0 0 0 0 0 0 0 0 0 0 0 0 0 0 0 0 0 0 0 0 0 0 0 1 2 2 1 0 0 0 0
30 31 31 29 23 19 17 13 9 6 5 4 1 0 0 0 1 1 0 0 0 0 0 0 0 0 0 0 0 0 0 0 0 0 0 0 1 1 1 0 0 0 0
33 35 36 33 27 23 22 19 14 10 7 5 3 2 2 2 2 2 1 0 0 0 0 0 0 0 0 0 0 0 0 0 0 0 0 0 0 0 0 0 0 0 0
35 36 38 35 30 26 25 23 18 12 9 7 6 5 5 4 3 2 1 0 0 0 0 0 0 0 0 0 0 0 0 0 0 0 0 0 0 1 0 0 0 0 0
35 36 36 33 30 29 28 25 20 15 11 9 7 6 5 4 3 2 1 0 0 0 0 0 0 0 0 0 0 0 0 0 0 0 0 0 0 0 0 0 0 0 0
34 34 33 30 28 29 27 25 22 16 11 8 5 4 4 3 3 3 1 0 0 0 0 0 0 0 0 0 0 0 0 0 0 0 0 0 0 0 0 0 0 0 0
31 30 29 27 26 26 25 24 21 15 9 6 4 3 3 3 3 3 2 0 0 0 0 0 0 0 0 0 0 0 0 0 0 0 0 0 0 0 0 0 0 0 0
27 26 25 25 24 23 23 23 19 14 9 5 3 3 3 3 3 3 1 0 0 0 0 0 0 0 0 0 0 0 0 0 0 0 0 0 0 0 0 0 0 0 0
24 23 23 21 20 20 20 20 18 13 9 5 4 3 3 3 3 3 1 0 0 0 0 0 0 0 0 0 0 0 0 0 0 0 0 0 0 0 0 0 0 0 0
24 23 20 18 17 17 15 14 13 10 7 5 4 3 2 3 3 3 2 0 0 0 0 0 0 0 0 0 0 0 0 0 0 0 0 0 0 0 0 0 0 0 0
24 22 18 15 14 14 12 10 8 7 6 5 4 2 1 2 3 3 1 0 0 0 0 0 0 0 0 0 0 0 0 0 0 0 0 0 0 0 0 0 0 0 0

GEFSSE_con_prob3kmehi_120.txt.gz
EHI
1 2 5 9 15 25 32 33 30 29 26 22 14 6 3 1 0 0 0 0 0 0 0 0 0 0 0 0 0 0 0 0 0 0 0 0 0 0 0 0 0 0 0
6 6 8 11 17 25 30 30 27 23 20 17 11 5 3 2 0 0 0 0 0 0 0 0 0 0 0 0 0 0 0 0 0 0 0 0 0 0 0 0 0 0 0
16 12 11 17 24 27 27 26 22 16 12 10 7 4 2 1 0 0 0 0 0 0 0 0 0 0 0 0 1 1 0 0 0 0 0 0 0 0 0 0 0 0 0
23 17 17 26 31 30 26 22 18 12 8 7 4 2 1 0 0 0 0 0 0 0 0 0 0 0 0 0 1 1 0 0 0 0 0 0 0 0 0 0 0 0 0
25 20 25 35 37 32 26 21 16 10 6 4 2 1 0 0 0 0 0 0 0 0 0 0 0 0 0 0 1 1 0 0 0 0 0 0 0 0 0 0 0 0 0
27 24 31 41 40 32 25 20 15 10 6 3 1 0 0 0 0 0 0 0 0 0 0 0 0 0 0 0 0 0 0 0 0 0 0 0 0 0 0 0 0 0 0
34 31 35 43 42 32 24 20 16 11 7 4 1 0 0 0 0 0 0 0 0 0 0 0 0 0 0 0 0 0 0 0 0 0 0 0 0 0 0 0 0 0 0
45 42 40 42 39 29 23 21 18 12 6 3 1 0 0 0 0 0 0 0 0 0 0 0 0 0 0 0 0 1 1 0 0 0 0 0 0 0 0 0 0 0 0
54 52 47 41 34 25 21 21 19 12 6 2 0 0 0 0 0 0 0 0 0 0 0 0 0 0 0 0 0 1 1 0 0 0 0 0 0 0 0 0 0 0 0
55 54 51 45 36 25 19 18 16 11 6 3 1 0 0 0 0 0 0 0 0 0 0 0 0 0 0 0 0 0 0 0 0 0 0 0 0 0 0 0 0 0 0
51 50 49 47 40 29 20 16 14 10 7 4 1 0 0 0 0 0 0 0 0 0 1 1 2 1 0 0 0 0 0 0 0 0 0 0 0 0 0 0 0 0 0
47 45 44 43 39 31 22 17 15 12 8 5 2 0 0 0 0 0 0 0 0 0 1 2 2 2 1 0 0 0 0 0 0 0 0 0 0 0 0 0 0 0 0
48 45 41 38 34 28 21 19 17 14 11 7 2 0 0 0 0 0 0 0 0 0 1 1 1 1 0 0 0 0 0 0 0 0 0 0 0 0 0 0 0 0 0
47 44 40 34 28 23 19 18 16 14 11 7 2 0 0 0 0 0 0 0 0 0 0 0 0 0 0 0 0 0 0 0 0 0 0 0 0 0 0 0 0 0 0
42 40 36 30 24 21 19 17 14 11 8 3 1 0 0 0 0 0 0 0 0 0 0 0 0 0 0 0 0 0 0 0 0 0 0 0 0 0 0 0 1 0 0
34 33 31 25 21 20 19 16 13 9 4 1 0 0 0 0 0 0 0 0 0 0 0 0 0 0 0 0 0 0 0 0 0 0 0 0 0 0 0 0 0 0 1
27 25 24 22 18 16 15 14 11 7 3 1 0 0 0 0 0 0 0 0 0 0 0 0 0 0 0 0 0 0 0 0 0 0 0 0 0 0 0 0 0 0 1
20 18 18 18 15 11 9 9 8 5 2 1 1 0 0 0 0 0 0 0 0 0 0 0 0 0 0 0 0 0 0 0 0 0 0 0 0 0 0 0 0 0 1
15 14 14 16 14 9 5 5 5 4 1 0 1 0 0 0 0 0 0 0 0 0 0 0 0 0 0 0 0 0 0 0 0 0 0 0 0 0 0 0 0 0 0
13 14 15 17 16 11 6 3 4 4 1 0 0 0 0 0 0 0 0 0 0 0 0 0 0 0 0 0 0 0 0 0 0 0 0 0 0 1 1 1 0 0 0
14 15 16 17 15 11 6 3 2 2 1 0 0 0 0 0 0 0 0 0 0 0 0 0 0 0 0 0 0 0 0 0 0 0 0 0 0 1 1 1 0 0 0
15 16 17 15 12 9 7 5 3 2 1 0 0 0 0 0 0 0 0 0 0 0 0 0 0 0 0 0 0 0 0 0 0 0 0 0 0 0 0 0 0 0 0
15 18 17 14 10 8 7 7 6 4 1 0 0 0 0 0 0 0 0 0 0 0 0 0 0 0 0 0 0 0 0 0 0 0 0 0 0 0 0 0 0 0 0
15 17 18 15 11 9 8 8 8 6 2 0 0 0 0 0 0 0 0 0 0 0 0 0 0 0 0 0 0 0 0 0 0 0 0 0 0 0 0 0 0 0 0
14 15 17 15 12 10 10 10 9 7 3 0 0 0 0 0 0 0 0 0 0 0 0 0 0 0 0 0 0 0 0 0 0 0 0 0 0 0 0 0 0 0 0
13 14 15 15 12 12 12 11 9 6 3 1 0 0 0 0 0 0 0 0 0 0 0 0 0 0 0 0 0 0 0 0 0 0 0 0 0 0 0 0 0 0 0

GEFSSE_con_prob3kmehi_126.txt.gz
EHI
4 4 4 2 2 5 11 17 19 17 12 5 1 0 0 0 0 0 0 0 0 0 0 0 0 0 0 0 0 0 0 0 0 0 0 0 0 0 0 0 0 0 0
6 6 5 3 4 7 13 19 22 19 10 3 0 0 0 0 0 0 0 0 0 0 0 0 0 0 0 0 0 0 0 0 0 0 0 0 0 0 0 0 0 0 0
9 8 6 5 7 10 14 20 24 20 9 2 0 0 0 0 0 0 0 0 0 0 0 0 0 0 0 0 0 0 0 0 0 0 0 0 0 0 0 0 0 0 0
8 8 7 7 9 11 14 19 21 17 9 2 0 0 0 0 0 0 0 0 0 0 0 0 0 0 0 0 0 0 0 0 0 0 0 0 0 0 0 0 0 0 0
7 9 11 11 11 12 14 15 16 13 8 3 0 0 0 0 0 0 0 0 0 0 0 0 0 0 0 0 0 0 0 0 0 0 0 0 0 0 0 0 0 0 0
9 11 14 14 12 13 13 12 12 10 7 3 1 0 0 0 0 0 0 0 0 0 0 0 0 0 0 0 0 0 0 0 0 0 0 0 0 0 0 0 0 0 0
10 13 17 16 12 12 13 12 11 10 7 4 1 0 0 0 0 0 0 0 0 0 0 0 0 0 0 0 0 0 0 0 0 0 0 0 0 0 0 0 0 0 0
9 13 17 15 11 11 13 14 12 9 6 4 2 1 0 0 0 1 0 0 0 0 0 0 0 0 0 0 0 0 0 0 0 0 0 0 0 0 0 0 0 0 0
7 10 13 11 9 9 11 12 11 8 5 4 3 1 0 0 0 0 0 0 0 0 0 0 0 0 0 0 0 0 0 0 0 0 0 0 0 0 0 0 0 0 0
8 9 10 9 8 6 7 9 8 6 4 3 3 2 1 0 0 0 0 0 0 0 0 0 0 0 0 0 0 0 0 0 0 0 0 0 0 0 0 0 0 0 0
20 18 15 12 10 7 6 7 6 4 3 3 3 2 1 0 0 0 0 0 0 0 0 0 0 0 0 0 0 0 0 0 0 0 0 0 0 0 0 0 0 0 0
37 31 23 18 14 11 9 9 7 5 4 3 3 3 1 0 0 0 1 1 0 0 0 0 0 0 0 0 0 0 0 0 0 0 0 1 0 0 0 0 0 0 0
43 37 30 26 23 19 17 15 12 10 7 5 4 4 2 1 0 0 1 1 0 0 0 0 0 0 0 0 0 0 0 0 0 0 0 0 0 0 0 0 0 0 0
43 40 36 34 34 33 31 25 20 16 12 9 9 8 5 2 1 1 1 1 0 0 0 0 0 0 0 0 0 0 0 0 0 0 0 0 0 0 0 0 0 0 0
44 42 40 40 41 45 44 36 26 20 15 14 15 13 8 5 4 3 2 1 0 0 0 0 0 0 0 0 0 0 0 0 0 0 0 0 0 0 0 0 0 0 0
46 45 42 41 43 45 46 39 28 20 17 16 17 16 12 8 6 5 3 1 0 0 0 0 0 0 0 0 0 0 0 0 0 0 0 0 0 0 1 1 0 0 0
47 45 41 37 37 40 39 35 27 21 18 17 17 17 14 11 8 7 4 2 1 0 0 0 0 0 0 0 0 0 0 0 0 0 0 0 0 0 1 2 1 0 0
44 43 38 31 31 32 33 31 26 21 20 20 18 16 15 12 9 7 6 4 2 1 0 0 0 0 0 0 0 0 0 0 0 0 0 0 0 0 1 1 1 0 0
41 40 36 30 27 28 30 32 26 21 21 21 17 15 14 13 10 8 7 6 3 1 0 0 0 0 0 0 0 0 0 1 0 0 0 0 0 0 0 1 0 0 0
38 38 34 29 27 28 31 32 26 18 17 17 15 12 11 12 10 8 7 7 4 1 1 0 0 0 0 0 0 0 0 0 0 0 0 0 0 0 0 1 0 0 0
33 33 29 25 25 27 31 32 27 20 15 13 12 9 7 8 8 7 7 6 4 3 2 1 0 0 0 0 0 0 0 0 0 1 0 0 0 0 0 0 0 0 0
27 27 24 22 22 24 28 30 27 21 16 12 10 8 5 4 5 6 6 4 3 4 3 1 0 0 0 0 0 0 0 0 0 0 0 0 0 0 0 0 0 0 0
22 23 22 22 23 24 24 23 22 20 17 14 10 9 7 4 3 4 5 4 3 2 3 2 1 1 1 0 0 0 0 0 0 0 0 0 0 0 0 0 0 0 0
17 17 18 21 24 26 23 18 17 17 16 13 12 11 10 7 4 4 4 3 2 1 2 3 2 2 2 1 0 0 0 0 0 0 0 0 0 0 0 0 0 0 0
12 12 14 16 19 24 24 20 17 15 13 12 13 14 12 9 6 4 3 3 2 1 2 3 3 3 3 1 0 0 0 0 0 0 0 0 0 0 0 0 0 0 0
9 10 11 11 13 18 23 21 17 12 10 11 14 14 12 10 6 4 3 3 2 1 1 3 3 3 3 2 1 0 0 0 0 0 0 0 0 0 0 0 0 0 0

GEFSSE_con_prob3kmehi_132.txt.gz
EHI
35 35 40 28 7 0 0 0 0 0 0 0 0 0 0 0 0 0 0 0 0 0 0 0 0 0 0 0 0 0 0 0 0 0 0 0 0 0 0 0 0 0 0
42 41 46 36 13 1 0 0 0 0 0 0 0 0 0 0 0 0 0 0 0 0 0 0 0 0 0 0 0 0 0 0 0 0 0 0 0 0 0 0 0 0 0
43 40 45 42 21 4 0 0 0 0 0 0 0 0 0 0 0 0 0 0 0 0 0 0 0 0 0 0 0 0 0 0 0 0 0 0 0 0 0 0 0 0 0
37 36 42 43 26 7 1 0 0 0 0 0 0 0 0 0 0 0 0 0 0 0 0 0 0 0 0 0 0 0 0 0 0 0 0 0 0 0 0 0 0 0 0
39 41 46 45 30 12 3 1 0 0 0 0 0 0 0 0 0 0 0 0 0 0 0 0 0 0 0 0 0 0 0 0 1 1 1 1 0 0 0 0 0 0 0
48 48 50 47 32 14 4 1 0 0 0 0 0 0 0 0 0 0 0 0 0 0 0 0 0 0 0 0 0 0 0 2 2 1 0 0 0 0 0 0 0 0 0
55 52 50 46 31 14 5 1 0 0 0 0 0 0 0 0 0 0 0 0 0 0 0 0 0 0 0 0 0 0 2 4 4 2 1 0 0 0 0 0 0 0 0
61 54 48 41 27 12 5 2 0 0 0 0 0 0 0 0 0 1 1 0 0 0 0 0 0 0 0 0 0 1 3 6 5 3 2 1 0 0 0 0 0 0 0
63 53 40 30 21 12 7 3 1 0 0 0 0 0 0 0 0 1 1 0 0 0 0 0 0 0 0 0 0 1 4 6 6 3 2 2 1 1 0 0 0 0 0
61 50 33 23 17 11 8 5 2 0 0 0 0 0 0 0 0 0 0 0 0 0 0 0 0 0 0 0 1 3 5 6 4 3 2 2 3 2 0 0 0 0 0
62 50 34 26 18 11 9 8 4 2 2 1 0 0 0 0 0 2 3 3 1 1 1 1 0 0 0 1 3 5 6 4 2 2 1 3 4 2 0 0 0 0 0
62 51 42 37 26 14 13 13 8 5 5 3 1 2 1 1 2 6 9 7 3 2 2 1 0 0 1 1 3 5 4 2 1 1 2 4 4 1 0 0 0 0 0
56 50 50 50 39 28 25 20 13 11 10 8 6 5 3 4 7 10 11 8 4 2 1 0 0 0 0 0 1 2 2 1 1 1 2 5 4 1 0 0 0 0 0
57 53 56 60 54 49 42 29 20 19 16 16 16 12 8 10 13 14 12 8 4 2 2 1 0 0 1 1 1 1 2 2 2 2 2 3 3 1 0 0 0 0 0
65 61 65 70 68 66 59 43 33 29 24 27 27 21 17 19 21 21 17 11 6 4 4 2 1 2 3 2 1 1 2 4 5 4 3 3 4 2 0 0 0 0 0
71 67 71 77 75 73 68 58 49 41 38 41 40 33 27 27 29 29 24 15 9 9 8 5 4 4 4 2 1 1 2 5 7 6 4 4 3 1 0 1 1 0 0
74 72 73 75 74 73 70 66 59 52 49 51 51 44 37 34 34 32 26 17 13 14 12 8 6 4 2 1 0 1 3 5 5 4 4 4 2 0 1 2 3 2 1
77 76 73 70 70 70 69 66 61 56 55 56 56 51 44 41 37 30 24 19 17 16 12 7 4 4 2 0 0 1 3 4 3 1 2 3 3 2 2 4 6 4 3
77 78 74 70 68 66 64 61 57 57 58 58 55 51 47 41 35 28 24 22 17 13 10 7 7 7 4 1 0 1 2 3 3 1 2 4 4 3 4 5 5 4 3
74 75 73 68 64 60 56 53 52 54 57 55 50 46 43 35 28 25 24 23 17 12 11 11 11 8 4 1 0 0 1 1 2 2 2 3 3 3 5 6 4 1 1
72 72 69 64 61 56 51 46 44 47 50 48 43 39 34 29 24 23 25 24 20 17 15 13 11 7 3 1 1 0 0 1 1 1 1 1 1 1 5 6 4 1 0
71 69 65 61 59 54 47 41 38 41 43 40 38 33 28 25 23 23 27 25 22 22 18 13 9 6 3 2 2 1 0 1 1 1 1 1 1 1 3 5 6 3 1
68 65 61 58 54 49 44 39 36 37 36 35 35 32 27 23 21 24 26 23 21 20 18 13 10 8 5 3 2 1 0 0 0 1 1 2 1 1 1 4 5 5 2
63 60 56 53 48 44 41 38 33 32 31 32 36 35 29 23 20 21 23 22 19 17 14 11 10 9 8 5 3 2 1 1 0 0 1 1 1 0 0 2 3 3 2
55 53 49 45 41 39 37 33 29 28 28 30 34 36 30 23 19 17 21 23 20 16 13 11 10 10 9 6 4 3 3 2 1 0 0 0 0 0 0 0 1 2 2
50 48 44 40 36 35 33 29 26 27 27 28 32 34 31 24 17 15 19 24 21 16 14 11 10 10 9 6 4 3 3 2 1 0 0 0 0 0 0 0 2 3 2

GEFSSE_con_prob3kmehi_138.txt.gz
EHI
1 6 13 13 7 4 2 3 3 2 2 4 5 7 5 2 0 1 1 1 0 0 0 0 0 0 0 0 0 0 0 1 2 2 1 0 0 0 0 0 0 1 1
8 12 20 20 13 7 4 3 3 2 3 3 3 3 2 1 0 0 0 0 0 0 0 0 0 0 0 0 0 0 0 1 2 2 1 0 0 0 0 0 0 0 1
25 23 26 29 22 12 7 4 3 2 2 2 1 0 0 0 0 0 0 0 0 0 0 0 0 0 0 0 0 0 0 0 1 1 0 0 0 0 0 0 0 0 0
38 31 31 37 31 17 8 5 3 1 1 1 0 0 0 0 0 0 0 0 0 0 0 0 0 0 0 0 0 0 0 0 0 0 0 0 0 0 0 0 0 0 0
40 36 40 47 39 21 9 5 3 1 0 0 0 0 0 0 0 0 0 0 0 0 0 0 0 0 0 0 0 0 0 0 0 0 0 0 0 0 0 0 0 0 0
43 44 51 55 46 27 12 5 3 1 0 0 0 0 0 0 0 0 0 0 0 0 0 0 0 0 0 0 0 0 0 0 0 0 0 0 0 0 0 0 0 0 0
53 52 54 56 49 32 15 5 1 0 0 0 0 0 0 0 0 0 0 0 0 0 0 0 0 0 0 0 0 0 0 0 0 0 0 0 0 0 0 0 0 0 0
63 57 51 49 44 32 18 6 1 0 0 0 0 0 0 0 0 0 0 0 0 0 0 0 0 0 0 0 0 0 1 1 0 0 0 0 0 0 0 0 0 0 0
65 61 51 42 34 27 19 8 2 0 0 0 0 0 0 0 0 0 0 1 1 1 0 0 0 0 0 0 0 1 2 2 1 0 0 0 1 1 1 0 0 0 0
58 57 53 42 31 24 17 9 3 0 0 0 0 0 0 0 0 0 1 2 2 1 0 0 0 0 1 1 1 2 2 2 1 0 0 0 2 3 1 0 0 0 0
52 52 51 46 37 27 17 9 3 1 0 0 0 0 0 0 0 0 1 2 3 2 0 0 0 1 2 2 1 1 1 1 0 0 0 1 3 4 3 1 1 0 0
54 52 49 46 41 31 21 13 6 2 0 0 0 0 0 0 0 0 1 2 2 1 1 1 1 2 3 2 1 0 0 0 0 0 0 1 3 4 3 3 2 1 0
55 54 50 45 40 32 24 17 10 4 1 0 0 0 0 0 0 0 0 1 1 1 1 1 2 2 2 1 0 0 0 0 0 0 0 1 3 4 4 3 2 1 1
54 50 46 42 35 28 23 16 9 4 1 0 0 0 0 0 0 0 0 0 0 0 0 1 1 1 1 0 0 0 0 0 0 0 0 1 2 4 5 4 2 1 0
55 47 39 34 28 22 17 12 6 2 1 0 0 0 0 0 0 0 0 0 0 0 0 0 0 0 0 0 0 0 0 0 0 0 0 1 3 5 5 4 3 2 1
58 52 43 35 28 21 16 12 7 3 2 2 1 0 0 0 0 0 0 0 0 0 0 0 0 0 0 0 0 0 0 0 0 0 0 1 2 4 4 4 3 3 2
62 60 55 47 36 28 23 18 13 10 7 5 2 0 0 0 0 0 0 0 0 0 0 0 0 0 0 0 0 0 0 0 0 0 0 0 1 2 3 3 3 2 1
67 64 61 56 47 39 33 27 23 17 13 10 5 3 3 3 2 1 1 0 0 0 0 0 0 0 0 0 0 0 0 0 0 0 0 0 0 0 1 3 2 1 1
66 63 61 59 54 47 40 35 29 22 18 14 9 6 7 7 5 3 2 2 2 1 0 0 0 0 0 0 0 0 0 0 0 0 0 0 0 0 0 1 1 1 2
62 61 61 62 57 49 41 36 30 25 21 16 11 9 9 8 7 5 4 3 3 2 1 0 0 0 0 0 0 0 0 0 0 0 0 0 0 0 0 0 0 1 2
60 61 63 61 55 44 36 32 28 25 22 17 11 8 7 7 6 6 5 4 3 3 1 0 0 0 0 0 0 0 0 0 0 0 0 0 0 0 0 0 0 0 1
61 62 62 58 48 38 30 26 23 21 18 14 9 6 6 6 6 6 4 3 3 3 2 1 0 0 0 0 0 0 0 0 0 0 0 0 0 0 0 0 0 0 0
58 59 58 52 43 33 26 22 19 16 14 11 8 7 7 6 5 5 4 3 3 3 2 1 0 0 0 0 0 0 0 0 0 0 0 0 0 0 0 0 0 0 0
53 54 52 47 40 31 25 21 18 15 12 9 7 6 7 6 5 4 3 2 2 1 1 0 0 0 0 0 0 0 0 0 0 0 0 0 0 0 0 0 0 0 0
50 49 47 42 36 30 25 21 17 13 8 6 6 5 5 5 4 3 3 2 1 0 0 0 0 0 0 0 0 0 0 0 0 0 0 0 0 0 0 0 0 0 0
48 48 44 39 34 29 25 20 16 11 6 4 6 5 3 3 3 4 4 2 1 0 0 0 0 0 0 0 0 0 0 0 0 0 0 0 0 0 0 0 0 0 0

GEFSSE_con_prob3kmehi_144.txt.gz
EHI
0 1 4 6 10 22 32 35 38 39 35 30 23 13 5 1 0 0 0 0 0 0 0 0 0 0 0 0 0 0 0 0 0 0 0 0 0 0 0 0 0 0 0
0 1 5 9 13 21 29 32 33 32 28 24 18 10 3 1 0 0 0 0 0 0 0 0 0 0 0 0 0 0 0 0 0 0 0 0 0 0 0 0 0 0 0
0 1 6 13 18 21 25 28 27 24 20 17 12 5 1 0 0 0 0 0 0 0 0 0 0 0 0 0 0 0 0 0 0 0 0 0 0 0 0 0 0 0 0
1 2 9 19 24 24 27 28 24 18 15 13 8 3 0 0 0 0 0 0 0 0 0 0 0 0 0 0 0 0 0 0 0 0 0 0 0 0 0 0 0 0 0
1 2 14 28 32 30 30 28 22 15 11 9 5 2 1 0 1 1 1 0 0 0 0 0 0 0 0 0 0 0 0 0 0 0 0 0 0 0 0 0 0 0 0
4 5 18 35 39 34 31 26 20 13 8 6 4 3 2 2 2 2 1 0 0 0 0 0 0 0 0 0 0 0 0 0 0 0 0 0 0 0 0 0 0 0 0
13 11 22 39 42 36 31 25 19 11 6 4 3 3 3 3 3 2 1 0 0 0 0 0 0 0 0 0 0 0 0 0 0 0 0 0 0 0 0 0 0 0 0
27 23 26 36 37 33 30 25 17 9 5 3 3 3 3 2 2 2 1 0 0 0 0 0 0 0 0 0 1 1 0 0 0 0 0 0 0 0 0 0 0 0 0
37 35 31 29 27 25 24 21 16 9 4 3 3 2 1 1 1 1 0 0 0 0 0 0 0 0 0 1 2 2 1 0 0 0 0 0 0 0 0 0 0 0 0
38 37 34 27 21 17 15 14 13 8 4 3 3 1 0 0 0 0 0 0 0 0 0 0 0 0 0 1 2 3 2 1 0 0 0 0 0 0 0 0 0 0 0
34 31 27 25 20 15 12 10 9 6 4 3 3 1 0 0 0 0 0 1 1 0 0 0 0 0 0 1 2 2 1 1 0 0 0 0 0 0 0 0 0 0 0
35 28 21 20 21 18 14 10 8 5 3 3 2 1 0 0 0 0 0 1 1 0 0 0 0 0 0 0 1 1 0 0 0 0 0 0 0 0 0 0 0 0 0
41 31 22 22 23 19 15 12 9 5 2 2 1 1 0 0 0 0 0 0 0 0 0 0 0 0 0 0 0 0 0 0 0 0 0 0 0 0 0 0 0 0 0
44 37 27 26 26 20 16 14 11 5 2 0 0 0 0 0 0 0 0 0 0 0 0 0 0 0 0 0 0 0 0 0 0 0 0 0 0 0 0 0 0 0 0
44 39 34 31 29 24 19 18 14 7 2 0 0 0 0 0 0 0 0 0 0 0 0 0 0 0 0 0 0 0 0 0 0 0 0 0 0 0 0 0 0 0 0
38 38 37 34 29 26 23 22 18 10 5 2 0 0 0 0 0 0 0 0 0 0 0 0 0 0 0 0 0 0 0 0 0 0 0 0 0 0 0 0 0 0 0
32 34 36 32 27 24 22 20 17 13 9 4 1 0 0 0 0 0 0 0 0 0 0 0 0 0 0 0 0 0 0 0 0 0 0 0 0 0 0 0 0 0 0
29 32 34 31 25 21 17 14 12 11 10 7 2 0 0 0 0 0 0 0 0 0 0 0 0 0 0 0 0 0 0 0 0 0 0 0 0 0 0 0 0 0 0
28 31 33 31 25 17 12 9 8 7 7 6 3 1 0 0 0 0 0 0 0 0 0 0 0 0 0 0 0 0 0 0 0 0 0 0 0 0 0 0 0 0 0
29 30 30 27 22 16 11 8 6 5 5 5 4 2 1 0 0 0 0 0 0 0 0 0 0 0 0 0 0 0 0 0 0 0 0 0 0 0 0 0 0 0 0
32 31 27 23 20 18 15 11 7 4 4 4 4 2 1 0 0 0 0 0 0 0 0 0 0 0 0 0 0 0 0 0 0 0 0 0 0 0 0 0 0 0 0
38 34 29 25 22 20 17 13 7 4 4 4 4 2 1 0 0 0 0 0 0 0 0 0 0 0 0 0 0 0 0 0 0 0 0 0 0 0 0 0 0 0 0
41 37 32 28 26 21 17 12 8 5 5 4 3 2 1 0 0 0 0 0 0 0 0 0 0 0 0 0 0 0 0 0 0 0 0 0 0 0 0 0 0 0 0
37 35 33 31 27 20 15 12 10 9 7 4 2 1 1 0 0 0 0 0 0 0 0 0 0 0 0 0 0 0 0 0 0 0 0 0 0 0 0 0 0 0 0
30 31 32 31 25 18 13 12 12 12 9 5 2 1 0 0 0 0 0 0 0 0 0 0 0 0 0 0 0 0 0 0 0 0 0 0 0 0 0 0 0 0 0
27 29 31 29 24 17 13 11 12 13 9 5 2 1 0 0 0 0 0 0 0 0 0 0 0 0 0 0 0 0 0 0 0 0 0 0 0 0 0 0 0 0 0

GEFSSE_con_prob3kmehi_150.txt.gz
EHI
0 0 0 0 0 2 7 15 20 21 17 12 7 3 1 0 0 0 0 0 0 0 0 0 0 0 0 0 0 0 0 0 0 0 0 0 0 0 0 0 0 0 0
0 0 0 1 1 2 6 13 19 19 16 12 7 3 1 0 0 0 0 0 0 0 0 0 0 0 0 0 0 0 0 0 0 0 0 0 0 0 0 0 0 0 0
0 0 0 2 3 4 6 12 17 18 16 13 7 3 1 0 0 0 0 0 0 0 0 0 0 0 0 0 0 0 0 0 0 0 0 0 0 0 0 0 0 0 0
0 1 2 4 6 7 9 14 17 16 15 12 6 3 1 0 0 0 0 0 0 0 0 0 0 0 0 0 0 0 0 0 0 0 0 0 0 0 0 0 0 0 0
0 2 6 8 8 8 9 13 14 12 10 8 5 2 0 0 0 0 0 0 0 0 0 0 0 0 0 0 0 0 0 0 0 0 0 0 0 0 0 0 0 0 0
0 3 8 10 9 7 8 9 9 8 7 6 4 1 0 0 0 0 0 0 0 0 0 0 0 0 0 0 0 0 0 0 0 0 0 0 0 0 0 0 0 0 0
0 3 7 10 9 8 7 8 7 5 4 4 3 1 0 0 0 0 0 0 0 0 0 0 0 0 0 0 0 0 0 0 0 0 0 0 0 0 0 0 0 0 0
1 3 6 8 8 8 7 6 5 3 1 1 2 1 0 0 0 0 0 0 0 0 0 0 0 0 0 0 0 0 0 0 0 0 0 0 0 0 0 0 0 0 0
2 5 6 6 5 4 4 3 3 2 1 2 3 2 1 0 0 0 0 0 0 0 0 0 0 0 0 0 0 0 0 0 0 0 0 0 0 0 0 0 0 0 0
4 6 6 5 3 2 2 3 2 1 2 4 4 4 2 1 0 0 1 1 1 0 0 0 0 0 0 0 0 0 0 0 0 0 0 0 0 0 0 0 0 0 0
9 8 7 5 3 2 2 3 2 0 1 3 3 2 1 0 0 0 1 2 2 1 0 0 0 0 0 0 0 0 0 0 0 0 0 0 0 0 0 0 0 0 0
16 12 8 6 4 2 1 1 1 1 1 1 1 0 0 0 0 1 2 3 2 1 0 0 0 0 1 0 0 0 0 0 0 0 0 0 0 0 0 0 0 0 0
24 16 10 9 6 2 0 1 2 3 2 2 2 1 0 0 0 1 2 3 2 1 0 0 0 0 0 0 0 0 0 0 0 0 0 0 0 0 0 0 0 0 0
31 22 15 15 13 8 5 4 3 4 4 4 4 2 0 0 0 0 1 2 1 0 0 0 0 0 0 0 0 0 0 0 0 0 0 0 0 0 0 0 0 0 0
38 31 23 23 24 20 15 10 6 5 6 6 5 2 1 1 1 0 0 1 1 0 0 0 0 0 0 0 0 0 0 0 0 0 0 0 0 0 0 0 0 0 0
43 38 32 30 30 27 22 16 10 7 7 6 5 3 2 3 2 1 0 1 1 1 0 0 0 0 0 0 0 0 0 0 0 0 0 0 0 0 0 0 0 0 0
47 43 37 33 30 27 22 18 14 11 9 7 5 5 4 3 2 1 0 1 1 1 0 0 0 0 0 0 0 0 0 0 0 0 0 0 0 0 0 0 0 0 0
48 46 40 34 32 28 21 18 17 16 14 10 7 7 6 3 2 2 2 1 1 0 0 1 1 0 0 0 0 0 0 0 0 0 0 0 0 0 0 0 0 0 0
47 47 43 39 36 32 25 21 21 22 22 19 13 10 7 3 1 1 3 3 1 0 0 1 1 1 0 1 0 0 0 0 0 0 0 0 0 0 0 0 0 0 0
49 48 46 43 42 39 34 29 25 23 25 24 19 13 7 3 1 0 2 2 1 0 0 1 2 1 0 0 0 0 0 0 0 0 0 0 0 0 0 0 1 0 0
52 50 47 46 47 46 43 38 32 25 23 22 19 13 7 3 1 0 1 2 2 1 0 1 2 2 0 0 0 0 0 0 0 0 0 0 0 0 0 0 0 0 0
53 50 46 46 47 48 46 41 35 29 22 17 16 14 10 4 1 0 1 2 3 2 1 2 3 3 1 0 0 0 0 0 0 0 0 0 0 0 0 0 0 0 0
50 47 45 44 44 45 44 39 33 27 19 15 15 15 12 7 2 0 1 2 2 2 2 3 4 4 2 1 1 0 0 0 0 0 0 0 0 0 0 0 0 0 0
45 44 44 44 44 44 43 39 32 22 15 13 14 15 13 9 4 1 2 2 2 1 2 2 2 3 4 3 2 1 0 0 0 0 0 0 0 0 0 0 0 0 0
42 41 42 45 44 42 41 38 32 22 14 11 11 12 12 9 5 3 4 4 3 1 1 0 1 3 4 5 4 2 1 0 0 0 0 0 0 0 0 0 0 0 0
42 40 40 43 42 38 36 34 31 23 14 9 8 9 9 8 5 5 6 6 5 2 0 0 1 3 4 5 5 3 1 0 0 0 0 0 0 0 0 0 0 0 0

GEFSSE_con_prob3kmehi_156.txt.gz
EHI
12 11 12 10 4 1 0 0 0 0 0 0 0 0 0 0 0 0 0 0 0 0 0 0 0 0 0 0 0 0 0 0 0 0 0 0 0 0 0 0 0 0 0
13 12 13 11 5 1 0 0 0 0 0 0 0 0 0 0 0 0 0 0 0 0 0 0 0 0 0 0 0 0 0 0 0 0 0 0 0 0 0 0 0 0 0
12 11 11 10 6 2 0 0 0 0 0 0 0 0 0 0 0 0 0 0 0 0 0 0 0 0 0 0 0 0 0 0 0 0 0 0 0 0 0 0 0 0 0
10 9 10 12 9 4 1 0 0 0 0 0 0 0 0 0 0 0 0 0 0 0 0 0 0 0 0 0 0 0 0 0 0 0 0 0 0 0 0 0 0 0 0
10 10 12 15 11 6 2 1 0 0 0 0 0 0 0 0 0 0 0 0 0 0 0 0 0 0 0 0 0 0 0 1 2 1 0 0 0 0 0 0 0 0 0
11 11 14 17 13 6 2 1 0 0 0 0 0 0 0 0 0 0 0 0 0 0 0 0 0 0 0 0 0 0 3 6 6 2 0 0 0 0 0 0 0 0 0
14 12 13 15 12 6 1 0 0 0 0 0 0 0 0 0 0 0 0 0 0 0 0 0 0 0 0 0 0 1 5 10 8 2 0 0 0 0 0 0 0 0 0
20 15 11 11 9 5 1 0 0 0 0 0 0 0 0 0 0 0 0 0 0 0 0 0 0 0 0 0 0 1 7 11 8 2 0 0 0 0 0 0 0 0 0
27 18 10 8 7 4 1 0 0 0 0 0 0 0 0 0 0 0 0 0 0 0 0 0 0 0 0 0 0 1 6 10 7 2 1 1 1 0 0 0 0 0 0
31 21 10 8 6 4 1 0 0 0 0 0 0 0 0 0 0 0 0 0 0 0 0 1 1 0 0 0 0 1 5 8 6 2 1 2 2 1 0 0 0 0 0
32 24 15 12 9 4 2 2 1 0 0 0 0 0 0 0 0 1 2 3 1 0 1 2 2 1 0 0 0 2 5 6 4 3 2 2 3 2 0 0 0 0 0
34 26 21 18 13 7 5 5 2 1 2 1 1 1 1 1 1 4 6 5 3 1 1 2 3 2 0 0 1 2 4 5 5 4 3 4 4 2 0 0 0 0 0
37 30 28 28 22 15 14 10 5 4 6 5 4 5 3 2 4 8 9 7 3 1 1 2 2 1 0 1 3 3 3 4 4 3 4 6 5 2 0 0 0 0 0
41 38 42 44 38 32 27 18 10 10 11 11 13 11 6 4 6 10 11 7 3 1 1 1 1 1 1 1 2 2 2 3 3 2 3 6 5 2 0 0 0 0 0
45 48 57 63 57 50 43 30 20 18 17 19 23 18 10 8 9 11 12 9 4 3 4 4 3 2 1 0 1 1 1 2 3 3 2 3 4 2 1 0 0 0 0
54 58 67 72 68 62 52 40 31 24 22 27 32 27 18 15 17 17 14 11 8 8 9 8 5 3 1 0 0 1 1 3 4 4 2 3 4 3 2 1 0 0 0
66 68 71 71 68 64 54 43 34 27 26 34 42 40 29 25 29 25 18 13 14 16 15 11 6 2 1 1 1 1 3 4 5 4 4 5 5 3 3 2 1 0 0
78 78 74 68 67 63 53 45 38 35 38 46 54 51 40 35 35 30 22 19 22 22 17 12 6 2 1 1 1 2 4 7 6 3 4 7 7 5 4 4 3 2 1
86 86 81 73 72 67 56 49 47 48 53 60 61 57 50 44 39 32 28 28 28 25 19 15 11 7 3 2 1 1 3 8 8 5 4 6 9 9 6 5 5 3 1
91 91 87 82 79 75 65 56 54 57 61 64 62 60 59 51 40 32 32 34 32 28 24 20 17 13 8 4 2 1 3 6 8 7 6 6 6 7 7 8 7 3 1
94 93 90 86 83 80 73 64 58 58 58 57 57 61 61 51 40 33 33 36 35 32 30 24 21 17 10 5 2 2 2 3 4 7 10 8 6 6 10 13 12 8 5
94 92 88 85 83 80 74 65 59 57 52 46 48 57 57 48 41 36 36 37 36 35 33 28 23 17 12 7 5 3 1 0 0 4 9 8 7 9 13 16 20 21 17
91 89 86 84 82 77 69 62 57 55 49 41 44 53 54 47 40 38 39 39 37 34 33 30 22 17 15 12 9 5 1 0 0 2 4 5 7 11 11 12 21 27 26
85 84 83 83 80 74 67 61 57 52 46 42 44 49 49 43 37 38 43 45 40 34 29 24 20 19 18 15 12 6 2 1 1 1 0 2 7 10 8 6 11 21 25
77 78 79 79 77 71 65 61 56 50 44 41 41 43 44 39 34 37 46 51 47 39 31 25 24 25 20 14 11 9 5 3 3 2 1 1 4 7 7 5 6 13 21
72 73 75 77 73 68 65 62 57 51 44 39 37 39 41 39 32 35 46 54 52 45 37 32 30 28 21 13 11 11 8 5 4 3 1 0 1 4 7 8 7 11 18